Regional Weather Roundup
Issued by NWS

Home | Current Version | Previous Version | Text Only | Print | Product List | Glossary Off
Versions: 1 2 3 4 5 6 7 8 9 10 11 12 13 14 15 16 17 18 19 20 21 22 23 24 25 26 27 28 29 30 31 32 33 34 35 36 37 38 39 40 41 42 43 44 45 46 47 48 49

000
ASUS45 KBOI 272310
RWRID
WEATHER ROUNDUP FOR IDAHO
NATIONAL WEATHER SERVICE BOISE ID
500 PM MDT FRI MAR 27 2015

NOTE: "FAIR" INDICATES FEW OR NO CLOUDS BELOW 12000 FEET
WITH NO SIGNIFICANT WEATHER AND/OR OBSTRUCTIONS TO VISIBILITY

IDZ012-014-280000-
SOUTHWEST IDAHO


CITY           SKY/WX    TMP DP  RH WIND       PRES   REMARKS
BOISE          SUNNY     75  41  29 S6        30.04F
CALDWELL       SUNNY     75  45  33 E7        30.05F
$$

IDZ016-017-280000-
SOUTHCENTRAL IDAHO


CITY           SKY/WX    TMP DP  RH WIND       PRES   REMARKS
BURLEY         SUNNY     75  35  23 VRB5      30.10F
JEROME         SUNNY     73  34  23 MISG      30.12F
TWIN FALLS     SUNNY     75  38  26 N7        30.11F
$$

IDZ019>023-280000-
SOUTHEAST IDAHO


CITY           SKY/WX    TMP DP  RH WIND       PRES   REMARKS
IDAHO FALLS    SUNNY     70  30  22 S16       30.14F
POCATELLO      MOSUNNY   73  33  23 W16       30.14F
REXBURG        SUNNY     67  31  26 SW12G20   30.15F
$$

IDZ006-010-011-018-031-032-280000-
CENTRAL IDAHO MOUNTAINS


CITY           SKY/WX    TMP DP  RH WIND       PRES   REMARKS
MCCALL         SUNNY     64  37  36 S9        30.11F
HAILEY         MOSUNNY   68  37  32 S12       30.16F
STANLEY          N/A     63  31  30 W10G16    30.20F
SALMON         SUNNY    N/A N/A N/A CALM      30.03F
CHALLIS        SUNNY     72  25  17 W13       30.08F
$$

IDZ002-004-006-007-026-280000-
NORTHERN IDAHO


CITY           SKY/WX    TMP DP  RH WIND       PRES   REMARKS
LEWISTON       SUNNY     74  52  46 W6        29.94F
LOWELL           N/A     71  53  52 CALM      29.93F
COEUR D`ALENE  MOSUNNY   72  52  49 W6        29.95F
MULLAN PASS    MOSUNNY   56  37  49 VRB7      30.09F
$$


USA.gov is the U.S. government's official web portal to all federal, state and local government web resources and services.